This is the latest recevied weather packets stored in our database for station/object N4TLC. If no packets are shown the sender has not sent any weather packets the latest 10 day(s).
| Time | Temp. | Humidity | Pressure | Rain* | Wind** | Luminosity | Snow |
|---|---|---|---|---|---|---|---|
| 1777997207 | 23.89° C | 41% | 1018.1 hPa | 0 mm | - | 432 W/m² | - |
| 1777996904 | 23.89° C | 40% | 1018.5 hPa | 0 mm | - | 355 W/m² | - |
| 1777996601 | 23.89° C | 41% | 1018.5 hPa | 0 mm | - | 357 W/m² | - |
| 1777996297 | 23.89° C | 41% | 1018.6 hPa | 0 mm | - | 472 W/m² | - |
| 1777995993 | 23.33° C | 42% | 1018.5 hPa | 0 mm | - | 799 W/m² | - |
| 1777995689 | 23.33° C | 41% | 1018.6 hPa | 0 mm | - | 870 W/m² | - |
| 1777995386 | 22.78° C | 43% | 1018.6 hPa | 0 mm | - | 861 W/m² | - |
| 1777995084 | 22.78° C | 44% | 1018.5 hPa | 0 mm | - | 140 W/m² | - |
| 1777994780 | 22.22° C | 47% | 1018.7 hPa | 0 mm | - | 113 W/m² | - |
| 1777994476 | 22.22° C | 47% | 1018.5 hPa | 0 mm | - | 123 W/m² | - |
| 1777994171 | 22.22° C | 47% | 1018.7 hPa | 0 mm | - | 146 W/m² | - |
| 1777993869 | 22.22° C | 48% | 1018.7 hPa | 0 mm | - | 146 W/m² | - |
| 1777993565 | 21.67° C | 48% | 1018.7 hPa | 0 mm | - | 146 W/m² | - |
| 1777993262 | 22.22° C | 48% | 1018.6 hPa | 0 mm | - | 131 W/m² | - |
| 1777992958 | 21.67° C | 50% | 1018.5 hPa | 0 mm | - | 117 W/m² | - |
| 1777992656 | 21.67° C | 50% | 1018.7 hPa | 0 mm | - | 100 W/m² | - |
| 1777992354 | 21.11° C | 52% | 1018.6 hPa | 0 mm | - | 91 W/m² | - |
| 1777992051 | 21.11° C | 51% | 1018.6 hPa | 0 mm | - | 82 W/m² | - |
| 1777991748 | 20.56° C | 51% | 1018.6 hPa | 0 mm | - | 81 W/m² | - |
| 1777991445 | 20.56° C | 52% | 1018.7 hPa | 0 mm | - | 76 W/m² | - |
| 1777991143 | 20.56° C | 52% | 1018.5 hPa | 0 mm | - | 75 W/m² | - |
| 1777990840 | 20.56° C | 54% | 1018.9 hPa | 0 mm | - | 75 W/m² | - |
| 1777990537 | 20.56° C | 54% | 1018.7 hPa | 0 mm | - | 70 W/m² | - |
| 1777989931 | 19.44° C | 57% | 1018.6 hPa | 0 mm | - | 64 W/m² | - |
| 1777989627 | 18.89° C | 57% | 1018.8 hPa | 0 mm | - | 61 W/m² | - |
* Rain latest hour (hover to see other rain measurements)
** Current wind speed in m/s (hover to see current wind gust speed)